GFSMA_250_rhum_105.txt.gz
RH
71 66 79 75 81 99 90 84 81 63 74 67 66 84 60 80 100 98 96 77 62 100 100 100 58 100 100 100 99 74 56 36 32 30 25 20 30 24 23 31 36 37 38
95 74 78 86 87 100 92 63 62 64 66 67 66 84 65 90 100 100 84 60 61 100 98 84 74 100 100 100 100 98 68 47 36 34 30 23 29 31 25 28 28 31 38
100 100 100 100 86 65 67 59 50 52 74 71 78 69 80 100 95 100 71 59 66 100 89 76 100 100 100 100 100 88 58 43 44 35 34 31 36 39 47 37 27 30 37
100 100 100 100 97 70 69 60 52 49 67 65 69 73 74 91 100 99 61 68 52 94 98 56 76 100 100 100 100 87 52 34 46 44 41 44 49 50 52 61 48 50 48
100 100 100 100 100 69 68 59 57 58 75 66 67 75 64 95 97 93 67 53 36 60 100 78 78 100 100 100 100 74 68 62 59 51 48 43 75 73 70 90 89 69 55
95 99 100 93 82 54 57 63 51 65 86 88 74 77 78 80 98 94 65 46 30 29 81 100 100 100 100 100 92 66 76 72 66 58 68 66 71 72 75 100 100 92 62
100 88 85 71 68 51 62 55 65 66 88 83 65 76 82 74 81 81 45 38 28 32 73 79 100 100 100 100 100 57 96 73 65 77 93 71 70 96 95 97 100 100 87
84 67 54 47 33 40 41 37 67 58 71 83 70 82 92 94 72 72 49 33 27 100 86 100 100 100 100 100 98 98 100 94 91 91 93 95 80 89 95 100 91 90 91
56 59 46 30 28 25 25 29 47 52 55 68 70 96 92 73 67 66 54 31 100 100 88 100 100 100 100 100 98 100 100 86 100 100 100 89 50 53 65 99 82 92 100
29 36 30 26 19 16 26 31 46 43 51 59 72 100 97 78 68 54 38 59 100 100 92 100 100 100 100 77 98 94 100 100 100 96 97 100 76 49 52 48 35 97 100
16 14 13 14 13 20 27 36 57 47 51 68 74 92 91 92 59 48 38 74 100 100 100 100 100 100 99 100 81 100 100 100 100 100 96 100 99 86 72 48 48 100 100
13 12 11 11 16 24 38 66 100 65 59 68 61 88 87 82 67 60 54 100 100 100 100 100 100 100 100 100 79 66 93 89 97 100 100 100 100 100 100 90 63 86 98
16 10 12 14 50 27 58 92 93 100 80 66 73 96 92 89 71 47 40 100 100 100 100 100 100 100 100 100 76 58 69 55 70 91 100 98 100 100 100 100 83 83 71
15 11 31 32 43 77 100 65 78 100 97 100 100 100 100 88 78 54 37 99 100 100 100 100 100 100 100 92 86 82 81 60 32 54 86 40 92 100 100 96 93 100 85
23 29 36 28 80 100 79 80 90 93 100 100 98 75 64 80 67 59 39 47 100 100 100 100 100 94 100 100 100 77 78 80 52 59 68 63 92 100 100 100 100 100 100
24 28 45 45 100 100 100 100 100 100 100 100 100 89 100 100 82 62 54 37 35 100 100 100 100 100 98 100 100 100 100 100 99 76 84 99 84 98 100 100 100 100 100
30 56 57 81 100 100 100 100 99 93 83 87 100 100 100 100 84 72 52 42 34 35 90 100 100 100 100 97 74 85 100 100 99 92 79 81 65 100 100 100 100 100 100
45 64 71 100 100 100 93 98 100 99 99 100 100 100 100 100 92 73 54 44 31 35 49 100 100 100 100 100 100 88 65 50 42 50 74 70 96 100 100 100 100 100 100
66 79 88 100 100 99 75 100 100 100 100 100 99 89 91 68 60 54 46 38 29 52 68 100 100 100 100 100 100 100 91 100 100 100 100 100 100 98 100 100 100 100 100
94 89 100 100 100 100 95 100 100 100 100 100 85 81 44 31 27 26 28 34 52 50 96 100 100 100 100 100 100 100 100 100 100 100 97 73 66 74 70 93 100 100 100
100 100 100 100 100 100 100 98 98 100 82 58 34 28 25 26 31 46 59 70 98 90 100 100 100 100 100 100 100 100 100 100 100 100 100 100 100 100 100 100 100 100 100
100 100 100 100 100 100 99 100 86 68 44 35 27 29 58 69 72 83 98 95 95 100 100 86 100 100 100 100 100 100 100 100 100 100 100 100 100 100 100 100 100 100 100
100 100 100 100 100 100 100 100 93 60 43 28 31 61 77 91 100 94 85 78 80 78 76 78 70 58 57 67 91 99 100 100 100 100 100 100 100 100 100 100 100 100 100
100 100 100 100 100 100 100 100 81 50 33 37 48 68 86 85 85 76 50 51 66 74 74 80 60 47 51 54 57 67 76 80 99 100 100 100 100 100 100 100 100 100 100
100 100 100 100 100 100 100 100 75 57 40 49 46 69 80 77 73 94 85 43 75 100 98 90 76 91 100 98 100 95 91 100 100 100 100 90 90 100 100 100 99 75 89
100 100 100 100 100 100 100 100 75 48 78 99 56 51 54 56 59 81 86 85 61 98 100 100 100 100 100 100 100 100 100 100 100 100 99 92 93 98 95 86 77 81 84

GFSMA_250_rhum_108.txt.gz
RH
100 100 87 78 76 67 99 95 82 60 67 66 91 81 64 46 96 68 89 98 85 71 86 100 100 94 100 100 99 100 100 83 54 37 31 27 23 23 24 24 21 21 20
77 88 87 64 87 100 100 100 89 84 75 68 70 81 60 62 74 84 100 88 100 71 82 94 100 95 100 100 98 90 77 100 96 51 39 32 22 27 22 22 29 26 23
57 78 100 100 94 85 100 91 75 100 93 68 68 64 73 61 64 96 85 100 99 79 66 100 100 99 77 100 100 95 86 93 100 94 46 34 30 29 27 28 43 44 40
93 100 91 98 100 100 100 79 82 91 71 67 71 56 59 54 53 94 92 95 87 73 55 99 100 100 99 92 100 90 100 100 92 75 56 43 38 34 35 32 45 66 85
82 95 94 100 100 94 83 93 70 63 48 64 70 77 55 57 52 88 90 100 87 68 69 95 100 100 98 100 100 100 100 100 91 86 59 47 48 39 45 50 54 86 100
72 75 83 82 100 91 86 71 49 58 66 60 55 68 71 62 60 78 78 100 76 66 74 82 100 100 100 100 100 100 100 97 100 81 60 45 51 46 58 44 51 68 100
64 63 61 66 87 89 85 100 97 62 75 47 40 57 78 71 63 73 76 100 64 54 48 63 100 100 100 100 100 100 100 84 87 97 84 74 59 57 72 51 79 99 100
69 74 76 58 48 66 100 100 99 100 75 68 45 54 85 82 65 82 68 87 62 54 44 38 84 96 98 100 100 100 100 81 77 90 88 76 70 79 96 77 68 57 100
58 45 39 32 25 70 100 95 95 94 84 47 53 52 81 77 62 91 74 64 59 54 47 30 35 98 76 100 100 99 100 94 68 100 100 100 98 94 99 56 51 99 81
32 39 30 25 21 37 93 100 90 88 88 68 37 63 60 60 61 99 67 66 56 64 55 29 22 70 100 100 100 100 100 100 79 77 100 100 100 100 100 86 69 61 69
31 29 30 29 26 29 20 23 45 72 100 53 49 46 40 36 67 92 62 72 62 65 64 49 36 49 100 100 100 100 100 100 99 91 100 100 100 100 100 100 94 100 100
21 47 72 78 31 19 15 22 91 100 96 34 37 74 50 47 84 74 58 57 65 86 100 100 100 100 100 100 100 100 100 100 97 100 100 100 86 99 100 100 100 100 86
14 100 97 97 79 27 16 39 89 100 94 26 48 70 47 57 92 57 54 59 56 98 100 100 100 100 100 100 100 98 93 100 100 100 100 100 98 58 87 100 100 100 100
22 100 97 95 75 39 12 36 76 90 56 37 43 54 52 83 93 62 43 54 60 91 100 100 100 100 100 100 100 100 97 87 100 100 100 100 100 87 80 84 95 100 100
12 49 69 58 59 15 10 53 61 82 90 60 53 89 87 94 90 60 60 63 74 81 100 100 100 100 100 100 100 100 100 100 97 79 71 99 72 84 72 40 40 52 87
40 47 64 57 21 20 30 48 68 70 56 58 56 79 98 92 83 64 88 82 73 60 97 100 100 100 100 100 100 100 100 100 100 99 56 71 51 42 39 44 42 57 81
81 77 64 54 29 61 52 49 80 73 80 96 86 100 95 97 86 85 78 61 60 56 70 100 100 100 100 97 100 100 100 100 100 100 100 100 90 77 82 92 87 76 99
62 94 88 77 47 78 75 81 100 79 79 100 100 81 90 100 89 54 86 100 65 63 48 81 98 100 100 100 100 98 94 100 100 94 80 93 100 100 100 86 71 76 73
98 100 100 91 98 100 99 93 97 100 100 93 99 100 100 100 92 84 87 53 58 46 39 39 36 40 58 89 98 100 100 82 100 100 100 100 100 98 91 69 55 68 99
99 100 100 100 100 100 100 100 99 100 99 90 91 100 100 100 100 96 59 52 49 33 26 24 27 40 33 31 32 95 100 100 100 100 100 100 98 85 68 58 56 89 98
97 100 100 100 100 100 100 100 100 96 80 96 98 98 100 98 100 83 90 76 53 40 26 24 30 27 28 32 53 98 100 100 100 100 100 100 93 96 100 99 100 100 86
100 100 100 100 100 100 100 100 100 100 96 100 86 90 81 85 76 52 32 27 25 28 34 30 32 44 71 87 100 100 100 100 100 100 100 100 100 100 100 100 100 100 100
99 100 100 100 100 100 100 100 100 100 87 100 100 99 80 50 40 31 32 27 42 61 73 80 94 98 100 100 100 100 100 100 100 100 100 100 100 100 100 100 100 100 100
100 100 100 100 100 100 100 100 100 100 99 90 100 93 78 55 44 34 46 67 78 84 89 92 91 100 99 100 100 100 100 100 100 100 100 100 100 100 100 100 100 100 100
100 100 100 100 100 100 100 100 100 100 100 100 99 65 68 57 34 42 56 52 67 66 64 59 69 80 70 74 82 75 69 77 96 89 90 99 100 100 100 100 100 100 100
100 100 100 100 100 100 100 100 100 100 100 100 100 88 48 43 45 52 49 53 60 65 68 65 50 58 71 80 74 71 58 55 58 50 48 54 84 96 100 100 100 100 100

GFSMA_250_rhum_114.txt.gz
RH
70 87 86 74 96 92 84 81 94 95 86 57 67 92 68 60 70 90 70 48 47 74 59 72 82 100 100 100 100 100 92 81 90 92 100 100 83 100 45 34 29 22 18
81 100 100 100 100 100 100 100 88 86 68 60 58 71 53 52 63 58 55 61 49 63 60 62 75 100 100 100 100 100 100 100 70 66 71 100 92 100 100 62 35 25 26
100 100 100 100 100 97 83 95 77 55 56 60 56 46 47 42 39 55 65 81 82 43 38 57 65 94 100 100 100 100 100 100 100 76 38 100 97 82 100 100 63 30 34
65 84 100 100 100 100 88 100 90 62 46 34 32 34 37 41 45 71 100 73 85 88 34 51 65 78 100 100 96 96 100 100 100 99 74 57 95 88 72 100 100 35 42
64 56 59 82 98 100 100 100 100 98 80 65 48 47 56 54 54 98 99 90 73 86 75 36 66 61 98 100 100 87 94 100 100 100 100 98 60 78 52 95 92 60 44
42 50 30 36 47 67 74 97 100 99 86 94 82 92 100 100 100 100 100 100 80 87 84 50 44 68 82 100 100 89 100 100 100 100 100 71 100 100 69 53 85 91 73
44 42 33 41 31 24 47 52 58 82 78 100 100 100 100 100 100 100 100 100 83 92 93 68 36 66 74 93 100 94 82 100 100 100 100 100 94 100 81 53 90 42 81
44 45 46 41 40 37 34 44 65 72 74 70 84 94 87 99 100 100 100 100 80 100 100 69 33 44 81 78 100 100 77 100 100 100 100 100 78 100 66 58 56 85 60
51 48 48 46 41 34 30 28 35 62 86 94 69 95 82 98 93 100 100 86 76 100 100 100 56 29 62 78 98 100 100 100 100 100 100 100 100 93 46 97 100 90 86
57 50 50 50 43 37 30 26 22 57 84 100 100 100 100 100 100 100 100 93 68 93 87 94 80 37 36 79 92 100 100 100 100 100 100 100 99 88 99 93 81 100 100
65 58 48 50 46 44 39 30 26 26 61 83 100 100 100 100 100 100 100 96 81 51 60 90 96 57 35 56 70 99 100 100 100 100 100 100 100 100 84 72 100 100 87
60 56 51 44 45 41 39 34 27 25 27 37 71 94 100 100 100 100 100 100 94 60 56 80 67 73 45 45 63 84 100 100 100 100 100 99 85 100 100 77 70 92 100
47 50 46 41 40 35 28 31 26 26 28 25 41 65 77 100 100 100 100 94 72 73 66 73 84 52 46 52 56 76 90 87 100 100 100 100 100 100 97 100 56 54 52
49 46 41 36 36 33 25 27 26 27 31 19 32 71 65 78 100 100 100 100 100 100 89 91 69 37 30 56 68 80 68 65 79 75 100 100 77 100 99 84 96 90 77
47 45 39 36 40 33 30 29 27 22 17 15 26 42 65 79 99 100 100 100 100 100 100 98 50 34 34 62 78 91 62 58 46 59 96 100 100 100 100 78 75 74 90
41 47 55 56 32 32 33 31 25 15 14 21 48 91 94 94 81 86 100 100 100 100 97 51 41 38 53 69 79 73 68 58 56 100 100 100 100 100 92 100 100 98 88
73 64 55 42 33 31 36 32 28 20 68 86 100 100 93 71 67 99 99 99 100 99 72 50 49 55 80 87 80 95 83 92 100 100 100 100 100 100 100 100 100 100 100
65 59 49 35 30 32 39 76 73 100 100 100 81 80 80 86 96 100 99 100 80 100 86 68 56 72 79 98 83 100 100 100 100 100 100 100 100 100 100 100 100 100 100
57 52 44 34 35 38 100 100 94 100 100 100 94 84 92 72 88 100 100 82 92 96 79 77 56 55 71 87 92 100 100 100 100 100 100 100 100 100 100 100 94 99 100
64 47 50 40 34 79 100 100 100 100 93 83 74 85 93 86 100 100 100 100 92 88 71 63 54 66 84 67 80 100 100 100 100 100 100 100 100 100 100 94 94 86 77
58 49 38 42 34 100 100 100 100 93 95 99 100 100 100 100 100 98 100 87 70 76 73 66 75 56 61 75 77 78 94 99 100 100 100 100 100 100 98 97 94 80 82
50 42 46 32 92 100 100 100 100 100 100 100 100 100 100 100 100 95 100 100 100 88 88 81 81 85 69 63 62 74 72 80 100 100 100 100 100 100 100 100 100 100 100
47 50 43 31 100 100 100 100 100 79 89 79 100 100 100 96 100 100 100 100 100 93 63 79 78 87 68 62 57 42 40 47 70 79 89 98 100 100 100 100 98 86 89
60 52 32 66 100 100 100 100 94 95 72 100 100 100 100 100 100 100 100 100 100 92 81 74 78 82 79 58 40 37 31 33 36 34 41 44 40 71 84 82 51 46 55
63 47 41 94 100 100 100 100 100 100 97 100 100 100 100 100 100 100 100 100 100 81 98 74 63 54 73 54 42 37 26 23 22 29 28 30 30 37 68 68 43 47 100
50 40 69 100 100 100 100 100 100 100 83 100 100 100 100 100 100 100 100 100 100 100 96 82 91 79 78 60 47 39 31 27 25 26 32 40 47 41 38 46 57 91 98

GFSMA_250_rhum_117.txt.gz
RH
80 77 97 90 78 64 88 82 93 95 89 89 92 83 75 57 46 45 44 44 44 44 50 41 60 78 93 100 100 100 100 100 100 87 45 100 100 88 94 100 78 33 30
98 100 100 83 76 60 74 99 100 100 100 99 98 98 81 65 45 43 47 46 42 61 70 58 42 56 89 100 100 100 100 100 100 83 54 65 100 66 100 100 100 99 42
100 100 82 64 68 94 89 100 100 93 94 100 100 99 83 77 76 60 53 44 43 68 77 68 46 31 51 94 100 100 100 100 100 100 89 72 42 48 100 93 100 100 100
98 99 100 100 100 92 89 100 100 97 100 100 100 90 94 95 100 94 97 92 89 100 99 81 61 61 38 47 100 100 100 100 100 100 90 52 56 46 95 100 100 98 99
74 76 89 100 100 82 92 100 100 100 98 89 100 88 96 100 100 100 100 99 100 100 100 100 67 52 49 36 83 100 100 100 100 83 99 100 98 86 99 100 100 81 64
45 49 56 70 78 64 65 99 100 90 74 100 96 100 94 100 100 100 100 100 98 100 100 100 96 61 47 43 45 100 100 100 100 98 99 100 100 80 100 100 100 95 74
58 41 37 49 68 70 60 77 71 86 78 100 99 100 100 90 72 88 100 100 100 100 100 94 100 79 50 57 42 89 100 100 96 100 100 100 100 100 78 100 100 100 88
76 60 39 39 39 33 38 50 62 64 69 79 81 86 100 100 81 85 96 74 93 100 100 100 85 97 62 45 44 56 100 100 88 100 100 100 100 100 100 82 100 100 86
89 72 54 46 40 40 35 32 35 31 26 45 33 68 86 99 74 86 81 98 97 81 100 100 100 100 90 59 45 36 69 100 95 100 100 100 100 100 84 56 85 98 56
61 60 46 48 50 40 36 36 34 34 32 29 32 32 64 65 84 86 100 98 100 100 100 100 100 94 96 56 52 34 43 82 100 93 100 100 100 100 99 97 63 81 62
51 48 47 48 56 63 51 46 42 34 34 26 27 36 59 72 92 100 95 100 100 100 100 100 99 90 100 69 49 56 37 44 83 100 91 100 100 100 100 100 85 88 74
60 52 56 57 55 64 66 54 54 41 42 31 23 24 27 43 74 85 99 100 100 100 100 100 100 100 100 83 57 51 55 42 41 88 100 96 100 100 100 100 100 90 82
74 77 68 62 68 58 57 49 54 51 42 35 25 24 24 24 37 60 96 100 100 87 89 100 100 100 90 99 70 60 50 60 59 46 98 91 100 100 100 100 100 98 45
67 66 75 64 75 59 48 54 46 45 39 35 30 24 24 22 25 29 48 91 100 100 99 99 100 90 81 74 97 77 89 78 76 45 78 99 100 100 100 100 100 100 88
56 57 58 66 60 54 50 46 39 35 34 37 32 29 28 20 22 30 26 37 70 99 100 100 99 93 88 100 90 80 79 95 69 37 75 96 88 100 100 100 100 100 100
40 42 49 44 40 42 44 39 33 38 28 35 37 30 21 19 22 18 21 26 24 41 100 100 100 100 92 98 92 84 90 91 56 39 60 97 97 100 99 100 100 100 100
46 51 51 50 44 56 48 41 44 46 36 39 38 22 20 21 16 15 15 26 37 96 100 100 100 100 88 69 89 86 68 48 50 51 63 90 99 89 84 99 99 100 100
62 70 80 75 74 62 66 60 50 45 48 37 24 23 23 18 50 82 99 100 100 100 100 100 96 73 68 64 100 79 51 60 63 72 94 97 83 63 99 100 100 100 100
89 98 84 85 81 85 79 69 56 36 39 37 28 34 49 67 100 100 100 100 95 99 100 100 97 55 73 95 95 52 59 81 80 100 94 86 78 100 100 100 100 100 100
91 94 99 95 90 78 79 60 44 36 40 37 57 74 98 100 100 100 100 100 100 96 93 93 68 70 96 89 73 59 94 100 100 100 83 70 64 99 100 100 100 100 100
97 93 90 89 85 67 56 48 34 42 36 72 98 100 100 100 100 100 95 84 78 72 88 88 69 84 81 88 68 70 95 98 100 100 100 80 76 93 99 100 100 100 100
92 91 82 82 75 52 44 42 37 41 75 100 100 100 100 98 71 88 85 80 75 93 100 100 81 69 69 80 74 100 100 100 100 100 100 100 100 100 88 74 85 100 100
82 82 68 56 56 49 59 43 44 68 100 100 100 100 100 64 84 100 100 100 92 100 100 100 84 81 55 72 88 100 100 100 100 100 100 98 100 100 100 100 100 100 77
56 57 62 64 64 48 44 49 52 100 100 100 100 88 100 79 100 100 100 100 100 88 100 100 100 94 94 76 78 98 100 100 100 92 90 85 81 76 89 100 100 100 100
66 62 62 64 52 60 56 58 96 100 100 100 100 93 92 100 95 100 98 97 100 100 100 100 100 100 100 90 90 96 100 88 92 87 79 65 53 49 49 57 85 92 100
67 71 77 78 67 66 70 54 100 100 100 100 100 100 100 100 100 100 100 76 100 100 100 100 100 100 100 100 93 93 89 80 81 79 52 43 37 28 28 24 34 46 49

GFSMA_250_rhum_123.txt.gz
RH
93 100 97 97 100 100 100 100 88 93 74 78 89 98 75 73 65 60 64 71 100 100 73 46 69 74 64 57 49 55 89 78 100 100 92 82 57 76 100 95 100 100 100
53 74 98 99 100 100 100 89 82 100 100 100 100 100 86 53 72 72 73 77 100 100 99 95 92 89 97 94 70 65 64 88 100 100 76 76 57 58 100 50 99 95 100
38 49 69 88 100 90 80 80 77 82 82 99 100 100 75 40 83 100 98 67 92 98 96 80 79 98 100 100 100 78 68 70 100 100 100 74 70 56 100 72 60 98 100
58 56 61 73 95 100 94 85 72 58 55 96 100 100 91 69 74 75 100 78 100 90 99 88 84 66 59 45 71 100 100 96 70 100 100 87 76 57 66 96 64 77 100
39 63 61 47 89 100 98 79 72 58 62 100 100 83 69 73 80 87 93 73 96 100 100 95 100 77 62 79 59 91 100 100 94 77 100 100 79 69 42 77 70 70 66
33 40 52 64 45 80 100 79 75 76 100 100 100 99 100 100 100 91 100 99 88 96 100 69 56 100 95 85 76 62 100 92 100 72 96 100 100 79 54 38 73 66 56
41 34 39 67 65 48 60 73 40 50 72 80 97 100 100 100 100 100 100 100 82 78 99 100 94 91 97 81 74 65 51 93 61 71 96 80 100 100 90 66 51 63 52
47 43 33 33 69 79 60 70 77 53 48 58 66 97 99 99 100 100 100 100 100 92 100 100 91 96 59 70 82 58 69 79 36 39 72 63 87 100 100 87 64 63 52
33 40 38 31 30 79 94 86 80 78 66 48 54 57 100 100 100 100 100 99 97 100 100 100 96 91 98 94 95 86 85 54 30 27 31 47 70 84 100 100 77 78 68
20 25 36 39 38 41 69 94 83 85 78 65 47 49 49 56 90 93 100 100 100 100 100 100 100 100 100 100 100 97 88 78 64 42 30 35 58 66 98 100 98 98 99
14 17 23 34 56 82 62 64 72 71 94 72 66 60 54 42 60 87 78 89 82 98 100 100 100 100 100 100 100 100 100 100 89 65 31 27 31 57 66 100 100 100 100
12 14 17 26 42 84 100 80 69 68 70 81 79 58 54 52 45 36 34 33 42 59 60 80 91 98 100 100 96 83 98 100 100 85 79 48 36 37 40 94 100 100 100
14 13 17 22 29 52 100 99 95 85 76 67 60 58 58 56 54 48 40 38 35 36 38 44 37 33 39 41 47 34 37 43 100 100 89 76 70 64 44 53 97 100 100
18 17 15 19 22 34 80 100 100 97 93 86 79 72 67 67 62 58 50 37 31 34 34 32 34 35 32 34 35 31 30 35 51 100 100 90 87 79 53 49 67 85 100
25 22 17 16 19 24 38 85 100 100 99 98 90 80 83 79 78 65 56 41 37 32 32 45 38 36 31 30 29 30 30 29 30 34 66 100 98 92 78 58 50 56 68
32 25 21 18 18 22 27 43 82 100 100 99 92 90 80 72 78 70 67 66 47 52 37 49 50 39 30 26 28 28 26 25 26 28 29 67 100 100 83 78 56 54 55
56 35 34 28 22 18 20 25 35 60 89 99 97 89 87 84 95 90 88 73 75 50 41 38 23 28 22 24 20 19 20 21 20 19 23 28 63 98 100 100 91 62 55
73 67 52 47 36 24 20 21 26 31 43 65 88 89 82 80 88 80 68 79 79 55 36 24 24 21 25 21 15 15 15 16 17 19 21 24 33 38 77 100 97 78 78
66 72 62 55 57 45 36 30 29 32 37 43 46 49 58 76 74 81 72 63 64 54 27 24 24 29 25 23 16 16 16 18 20 23 25 34 50 54 71 64 86 89 99
82 81 93 89 76 54 55 62 55 62 48 40 41 42 44 48 48 39 37 38 39 32 28 26 38 37 31 32 32 28 26 40 49 49 49 56 54 54 66 100 100 100 100
100 99 100 100 100 91 73 62 71 57 61 56 48 49 58 54 50 47 37 45 45 35 33 42 46 45 85 81 70 92 100 95 100 100 93 76 88 98 100 100 100 99 76
88 88 99 96 100 98 93 83 91 84 84 85 86 84 81 78 72 70 55 53 52 45 47 42 40 67 84 94 94 100 97 71 98 100 100 100 99 83 97 94 95 69 80
87 93 96 98 95 94 100 92 92 98 95 98 100 94 90 84 72 68 59 57 52 50 43 44 87 82 85 98 100 100 100 94 100 100 97 94 92 94 85 81 76 89 100
78 76 76 73 78 88 85 97 100 92 89 94 99 93 89 80 78 66 63 53 48 49 62 76 96 100 100 100 100 100 100 100 97 100 97 100 99 98 88 87 85 100 100
73 83 80 56 53 54 54 57 73 86 95 96 99 96 93 84 74 61 54 49 48 64 94 100 100 100 90 79 63 76 97 100 98 100 100 100 100 98 83 99 99 100 100
67 68 66 62 59 50 49 57 71 76 68 72 79 70 65 72 65 64 52 48 44 89 100 100 100 100 92 76 62 96 100 100 100 100 100 93 100 100 85 100 100 100 100